Showing default

ICEYE-X46, 63258

Orbit data source: Space-Track

ICEYE-X46, 63258 is a payload satellite owned by ICEYE (FI) in SSO that was launched on Sat, 15 Mar 2025 UTC via an FALCON 9 launch vehicle from the Air Force Western Test Range (AFWTR). Payload-class satellites include a variety of spacecraft equipped with specific instruments for various scientific and technological missions. These include communications satellites like Starlink; space stations such as the ISS; scientific satellites like the Hubble; Earth observation satellites from companies like Planet Labs, Umbra, and HawkEye 360; GPS; miniature CubeSats for education and research; and military/defense satellites.

Loading next visibility...
Identifier
63258, 2025-052BA
Orbit
SSO
Country
Flag of FIFI / FIN
Related business
Manufacturer
ICEYE
Mission
Operational Commercial Radar Imaging
Bus & Motor
ICEYE, Unknown motor
Mass
80 kg wet, 80 kg dry
Launch date (UTC)
2025-03-15 (1 year ago)
Launch vehicle
FALCON 9
Launch site
Air Force Western Test Range (AFWTR)
Object type
Payload
Rocket body
Debris
Shape & HBR
Box + 1 Pan, 2.4 m
Radar Cross Section
0.776 m², Medium (>0.1 m² and < 1m²)

Expand to show TLE details & history
Last TLE update: 5 hours ago

TLE from 5 hours ago
0 ICEYE-X46
1 63258U 25052BA  26166.95007572  .00000637  00000-0  62946-4 0  9991
2 63258  97.6894  58.8678 0001676  83.4394 276.7018 14.95288767 68464
Epoch: 2026-06-15T22:48Z
TLE epoch observation values (Epoch: 2026-06-15T22:48:06.542Z)
Latitude
0.00003°
Longitude
172.61142°
Altitude
584.389 km
Speed
7.568 km/s
True Right ascension
03h 55m 28s
True Declination
0° 00' 00"
Sunlit
Object was in daylight at epoch
Visualization orbit readout
Latitude
Unknown
Longitude
Unknown
Altitude
Unknown
Speed
Unknown
Apparent Right ascension
Unknown
Apparent Declination
Unknown
Sunlit
N/A
Visualization observer readout
Local Sidereal Time
14:48:23
Azimuth
Unknown
Elevation
Unknown
Doppler factor
Unknown
Orbital elements
Apogee altitude
579.654 km
Perigee altitude
577.322 km
Semi-major axis
6,956.625 km
Eccentricity
0.00017
Inclination
97.6894°
RAAN
58.8678°
Arg. of periapsis
83.4394°
True anomaly
276.68273°
Mean anomaly
276.7018°
Eccentric anomaly
276.69226°
Mean motion
3.74063 °/min
Orbital period
96.24 mins
BSTAR
0.000062946
Loading maneuver chart data...
Computing Atmospheric mass density...
Loading historical data...
Loading historical data...
Loading historical data...
Loading historical data...
Loading historical data...
Loading historical data...
Loading historical data...

Documentation

Showing up to 5 results
|